Tracking 29777 objects as of 6-Oct-2024
HD Live streaming from Space Station
objects crossing your sky now

STARLINK-31230

Track STARLINK-31230 now!
10-day predictions
STARLINK-31230 is classified as:


NORAD ID: 58890
Int'l Code: 2024-020Q
Perigee: 452.7 km
Apogee: 454.0 km
Inclination: 53.2 °
Period: 93.5 minutes
Semi major axis: 6824 km
RCS: Unknown
Launch date: January 29, 2024
Source: United States (US)
Launch site: AIR FORCE WESTERN TEST RANGE (AFWTR)
Your satellite tracking list
Your tracking list is empty




NASA's NSSDC Master Catalog

Two Line Element Set (TLE):
1 58890U 24020Q   24280.11014270 -.00003910  00000-0 -86813-4 0  9995
2 58890  53.1600 214.9575 0000932 114.3448 245.7654 15.39956654 39580
Source of the keplerian elements: AFSPC